| time (UTC) | temp C | wind direction | speed KPH | gust KPH | rain 1hr cm | rain 24hr cm | rain mn cm | humidity % | barometer mb |
| 20260503221205 | 11 | 274 | 4.8 | 11.3 | 0.00 | 0.03 | 0.03 | 45 | 1006.8 |
| 20260503220705 | 11 | 212 | 3.2 | 8.0 | 0.00 | 0.03 | 0.03 | 46 | 1006.8 |
| 20260503220205 | 11 | 287 | 3.2 | 11.3 | 0.00 | 0.03 | 0.03 | 45 | 1006.7 |
| 20260503215704 | 11 | 268 | 4.8 | 12.9 | 0.00 | 0.05 | 0.03 | 46 | 1006.7 |
| 20260503215205 | 11 | 268 | 4.8 | 9.7 | 0.00 | 0.05 | 0.03 | 44 | 1006.6 |
| 20260503214704 | 11 | 280 | 4.8 | 12.9 | 0.00 | 0.05 | 0.03 | 44 | 1006.7 |
| 20260503213204 | 11 | 265 | 4.8 | 8.0 | 0.00 | 0.05 | 0.03 | 46 | 1006.5 |
| 20260503212704 | 11 | 262 | 4.8 | 14.5 | 0.00 | 0.08 | 0.03 | 44 | 1006.4 |
| 20260503205204 | 11 | 268 | 3.2 | 11.3 | 0.00 | 0.10 | 0.03 | 44 | 1006.1 |
| 20260503204204 | 12 | 309 | 8.0 | 16.1 | 0.00 | 0.10 | 0.03 | 43 | 1006.0 |
| 20260503203705 | 12 | 264 | 4.8 | 20.9 | 0.00 | 0.10 | 0.03 | 43 | 1005.9 |
| 20260503203204 | 12 | 256 | 3.2 | 14.5 | 0.00 | 0.10 | 0.03 | 43 | 1005.7 |
| 20260503202204 | 12 | 290 | 8.0 | 19.3 | 0.00 | 0.10 | 0.03 | 42 | 1005.6 |
| 20260503201704 | 12 | 292 | 4.8 | 16.1 | 0.00 | 0.10 | 0.03 | 42 | 1005.6 |
| 20260503201205 | 12 | 293 | 3.2 | 11.3 | 0.00 | 0.10 | 0.03 | 44 | 1005.6 |
| 20260503200204 | 12 | 277 | 8.0 | 16.1 | 0.00 | 0.10 | 0.03 | 43 | 1005.6 |
| 20260503195705 | 12 | 352 | 3.2 | 19.3 | 0.00 | 0.10 | 0.03 | 46 | 1005.7 |
| 20260503195204 | 12 | 274 | 4.8 | 12.9 | 0.00 | 0.10 | 0.03 | 46 | 1005.6 |
| 20260503194204 | 12 | 296 | 4.8 | 9.7 | 0.00 | 0.10 | 0.03 | 47 | 1005.6 |
| 20260503193705 | 12 | 329 | 6.4 | 14.5 | 0.00 | 0.10 | 0.03 | 46 | 1005.6 |
| 20260503192704 | 12 | 330 | 6.4 | 19.3 | 0.00 | 0.10 | 0.03 | 47 | 1005.7 |
| 20260503191704 | 12 | 324 | 3.2 | 12.9 | 0.00 | 0.10 | 0.03 | 48 | 1005.8 |
| 20260503190704 | 12 | 283 | 3.2 | 11.3 | 0.00 | 0.10 | 0.03 | 50 | 1005.7 |
| 20260503190205 | 12 | 274 | 4.8 | 9.7 | 0.00 | 0.10 | 0.03 | 49 | 1005.7 |
| 20260503185704 | 12 | 293 | 3.2 | 14.5 | 0.00 | 0.10 | 0.03 | 48 | 1005.7 |
| 20260503184705 | 12 | 345 | 8.0 | 14.5 | 0.00 | 0.10 | 0.03 | 47 | 1005.7 |
| 20260503184204 | 12 | 277 | 6.4 | 12.9 | 0.00 | 0.10 | 0.03 | 50 | 1005.7 |
| 20260503181204 | 11 | 285 | 1.6 | 14.5 | 0.00 | 0.10 | 0.03 | 52 | 1005.8 |
| 20260503180204 | 11 | 306 | 8.0 | 19.3 | 0.00 | 0.10 | 0.03 | 50 | 1006.0 |
| 20260503175206 | 11 | 273 | 6.4 | 14.5 | 0.00 | 0.10 | 0.03 | 52 | 1006.0 |
| 20260503174704 | 11 | 268 | 9.7 | 22.5 | 0.00 | 0.10 | 0.03 | 53 | 1005.9 |
| 20260503174204 | 11 | 22 | 3.2 | 12.9 | 0.00 | 0.10 | 0.03 | 55 | 1005.9 |
| 20260503173705 | 11 | 268 | 11.3 | 20.9 | 0.00 | 0.10 | 0.03 | 54 | 1005.9 |
| 20260503172705 | 11 | 355 | 8.0 | 19.3 | 0.00 | 0.10 | 0.03 | 52 | 1006.0 |
| 20260503172204 | 11 | 271 | 6.4 | 19.3 | 0.00 | 0.10 | 0.03 | 57 | 1005.9 |
| 20260503171704 | 11 | 4 | 9.7 | 22.5 | 0.00 | 0.10 | 0.03 | 56 | 1005.8 |
| 20260503170205 | 11 | 322 | 9.7 | 19.3 | 0.00 | 0.10 | 0.03 | 57 | 1005.8 |
| 20260503160205 | 10 | 301 | 8.0 | 16.1 | 0.00 | 0.10 | 0.03 | 65 | 1006.0 |
| 20260503120204 | 6 | 0 | 1.6 | 4.8 | 0.00 | 0.15 | 0.00 | 89 | 1007.0 |
| 20260503110204 | 5 | 295 | 1.6 | 4.8 | 0.00 | 0.25 | 0.00 | 90 | 1006.9 |
| 20260503090204 | 5 | 307 | 0.0 | 4.8 | 0.00 | 0.28 | 0.00 | 92 | 1007.3 |
| 20260503080204 | 5 | 58 | 0.0 | 3.2 | 0.00 | 0.28 | 0.00 | 93 | 1008.0 |
| 20260503072204 | 6 | 51 | 0.0 | 0.0 | 0.00 | 0.28 | 0.00 | 94 | 1008.3 |
| 20260503071704 | 6 | 51 | 0.0 | 0.0 | 0.00 | 0.28 | 0.00 | 94 | 1008.4 |
| 20260503070704 | 6 | 51 | 0.0 | 0.0 | 0.00 | 0.28 | 0.00 | 95 | 1008.4 |
| 20260503060203 | 6 | 51 | 0.0 | 0.0 | 0.00 | 0.28 | 0.00 | 94 | 1009.4 |
| 20260503054204 | 6 | 51 | 0.0 | 0.0 | 0.00 | 0.28 | 0.00 | 93 | 1009.2 |
| 20260503053703 | 6 | 51 | 0.0 | 0.0 | 0.00 | 0.28 | 0.00 | 93 | 1009.4 |
| 20260503052703 | 6 | 51 | 0.0 | 0.0 | 0.00 | 0.28 | 0.00 | 93 | 1009.6 |
| 20260503052204 | 6 | 51 | 0.0 | 0.0 | 0.00 | 0.28 | 0.00 | 93 | 1009.5 |
| 20260503044703 | 7 | 330 | 0.0 | 0.0 | 0.00 | 0.28 | 0.00 | 93 | 1010.0 |
| 20260503044204 | 7 | 330 | 0.0 | 1.6 | 0.00 | 0.28 | 0.00 | 93 | 1010.2 |
| 20260503043204 | 7 | 43 | 0.0 | 4.8 | 0.00 | 0.28 | 0.00 | 93 | 1010.2 |
| 20260503042704 | 7 | 11 | 3.2 | 4.8 | 0.00 | 0.28 | 0.00 | 95 | 1010.2 |
| 20260503042204 | 7 | 17 | 1.6 | 4.8 | 0.00 | 0.28 | 0.00 | 95 | 1010.3 |
| 20260503040704 | 7 | 350 | 0.0 | 0.0 | 0.00 | 0.28 | 0.00 | 95 | 1010.3 |
| 20260503040204 | 7 | 350 | 0.0 | 0.0 | 0.00 | 0.28 | 0.00 | 95 | 1010.4 |
| 20260503035203 | 7 | 350 | 0.0 | 0.0 | 0.00 | 0.28 | 0.28 | 95 | 1010.3 |
| 20260503034704 | 8 | 350 | 0.0 | 0.0 | 0.00 | 0.28 | 0.28 | 95 | 1010.3 |
| 20260503034203 | 8 | 350 | 0.0 | 0.0 | 0.00 | 0.28 | 0.28 | 95 | 1010.4 |
| 20260503032704 | 8 | 350 | 0.0 | 0.0 | 0.00 | 0.28 | 0.28 | 95 | 1010.4 |
| 20260503032204 | 8 | 350 | 0.0 | 0.0 | 0.00 | 0.28 | 0.28 | 95 | 1010.3 |
| 20260503031704 | 8 | 350 | 0.0 | 0.0 | 0.00 | 0.28 | 0.28 | 95 | 1010.3 |
| 20260503031204 | 8 | 350 | 0.0 | 0.0 | 0.00 | 0.28 | 0.28 | 95 | 1010.3 |
| 20260503030704 | 8 | 350 | 0.0 | 1.6 | 0.00 | 0.28 | 0.28 | 95 | 1010.3 |
| 20260503025704 | 8 | 350 | 0.0 | 1.6 | 0.00 | 0.28 | 0.28 | 95 | 1010.2 |
| 20260503024703 | 8 | 350 | 0.0 | 0.0 | 0.00 | 0.28 | 0.28 | 95 | 1010.4 |
| 20260503023204 | 8 | 350 | 0.0 | 0.0 | 0.00 | 0.28 | 0.28 | 94 | 1010.4 |
| 20260503022704 | 8 | 350 | 0.0 | 0.0 | 0.00 | 0.28 | 0.28 | 94 | 1010.5 |
| 20260503022204 | 8 | 350 | 0.0 | 0.0 | 0.00 | 0.28 | 0.28 | 94 | 1010.5 |
| 20260503013703 | 8 | 350 | 0.0 | 0.0 | 0.00 | 0.28 | 0.28 | 94 | 1010.5 |
| 20260503005203 | 9 | 350 | 0.0 | 1.6 | 0.00 | 0.28 | 0.28 | 94 | 1010.4 |
| 20260503004704 | 9 | 350 | 0.0 | 1.6 | 0.00 | 0.28 | 0.28 | 94 | 1010.4 |
| 20260503004205 | 9 | 350 | 0.0 | 0.0 | 0.00 | 0.28 | 0.28 | 94 | 1010.3 |
| 20260503003706 | 9 | 350 | 0.0 | 1.6 | 0.00 | 0.28 | 0.28 | 94 | 1010.3 |
| 20260503002705 | 10 | 350 | 0.0 | 0.0 | 0.00 | 0.28 | 0.28 | 94 | 1010.5 |
| 20260503001705 | 10 | 350 | 0.0 | 0.0 | 0.00 | 0.28 | 0.28 | 94 | 1010.6 |
| 20260503000206 | 10 | 350 | 0.0 | 0.0 | 0.00 | 0.28 | 0.28 | 94 | 1010.4 |
| 20260502234705 | 10 | 350 | 0.0 | 1.6 | 0.00 | 0.28 | 0.28 | 94 | 1010.2 |
| 20260502234206 | 10 | 350 | 0.0 | 0.0 | 0.00 | 0.28 | 0.28 | 94 | 1010.3 |
| 20260502232705 | 10 | 349 | 0.0 | 1.6 | 0.00 | 0.28 | 0.28 | 94 | 1010.2 |
| 20260502232206 | 10 | 355 | 0.0 | 0.0 | 0.00 | 0.28 | 0.28 | 94 | 1010.2 |
| 20260502231705 | 10 | 355 | 0.0 | 0.0 | 0.00 | 0.28 | 0.28 | 94 | 1010.2 |
| 20260502230706 | 10 | 355 | 0.0 | 0.0 | 0.00 | 0.28 | 0.28 | 94 | 1010.0 |
| 20260502230206 | 10 | 355 | 0.0 | 0.0 | 0.00 | 0.28 | 0.28 | 94 | 1009.9 |
| 20260502224706 | 10 | 355 | 0.0 | 0.0 | 0.03 | 0.28 | 0.28 | 93 | 1009.6 |
| 20260502224205 | 10 | 355 | 0.0 | 0.0 | 0.03 | 0.28 | 0.28 | 93 | 1009.6 |
| 20260502222706 | 10 | 355 | 0.0 | 0.0 | 0.05 | 0.28 | 0.28 | 93 | 1009.5 |
| 20260502221706 | 10 | 355 | 0.0 | 0.0 | 0.08 | 0.28 | 0.28 | 92 | 1009.6 |